Location: Krakow
(50.0830°N, 19.9170°E)
Time: 04:58:51
(UTC+02:00)

Tiros 1 - Pass Details

Date: 14 February 2023
Orbit: 627 x 662 km, 48.4° (Epoch: 25 March)

Event Time Altitude Azimuth Distance (km) Brightness Sun altitude
Rises 23:51:24 0° 278° (W) 2,912 - -52.8°
Reaches altitude 10° 23:53:45 10° 274° (W) 2,004 - -52.8°
Maximum altitude 23:58:15 56° 196° (SSW) 750 - -52.8°
Drops below altitude 10° 00:02:46 10° 119° (ESE) 2,010 - -52.7°
Sets 00:05:07 0° 115° (ESE) 2,921 - -52.7°
